EHI
0 0 0 0 0 0 0 0 0 0 0 0 0 0 0 0 0 0 0 0 0 0 0 0 0 0 0 0 0 0 0 0 0 0 0 0 0 0 0 0 0 0 0
0 0 0 0 0 0 0 0 0 0 0 0 0 0 0 0 0 0 0 0 0 0 0 0 0 0 0 0 0 0 0 0 0 0 0 0 0 0 0 0 0 0 0
0 0 0 0 0 0 0 0 0 0 0 0 0 0 0 0 0 0 0 0 0 0 0 0 0 0 0 0 0 0 0 0 0 0 0 0 0 0 0 0 0 0 0
0 0 0 0 0 0 0 0 0 0 0 0 0 0 0 0 0 0 0 0 0 0 0 0 0 0 0 0 0 0 0 0 0 0 0 0 0 0 0 0 0 0 0
0 0 0 0 0 0 0 0 0 0 0 0 0 0 0 0 0 0 0 0 0 0 0 0 0 0 0 0 0 0 0 0 0 0 0 0 0 0 0 0 0 0 0
0 0 0 0 0 0 0 0 0 0 0 0 0 0 0 0 0 0 0 0 0 0 0 0 0 0 0 0 0 0 0 0 0 0 0 0 0 0 0 0 0 0 0
0 0 0 0 0 0 0 0 0 0 0 0 0 0 0 0 0 0 0 0 0 0 0 0 0 0 0 0 0 0 0 0 0 0 0 0 0 0 0 0 0 0 0
0 0 0 0 0 0 0 0 0 0 0 0 0 0 0 0 0 0 0 0 0 0 0 0 0 0 0 0 0 0 0 0 0 0 0 0 0 0 0 0 0 0 0
0 0 0 0 0 0 0 0 0 0 0 0 0 0 0 0 0 0 0 0 0 0 0 0 0 0 0 0 0 0 0 0 0 0 0 0 0 0 0 0 0 0 0
0 0 0 0 0 0 0 0 0 0 0 0 0 0 0 0 0 0 0 0 0 0 0 0 0 0 0 0 0 0 0 0 0 0 0 0 0 0 0 0 0 0 0
0 0 0 0 0 0 0 0 0 0 0 0 0 0 0 0 0 0 0 0 0 0 0 0 0 0 0 0 0 0 0 0 0 0 0 0 0 0 0 0 0 0 0
0 0 0 0 0 0 0 0 0 0 0 0 0 0 0 0 0 0 0 0 0 0 0 0 0 0 0 0 0 0 0 0 0 0 0 0 0 0 0 0 0 0 0
0 0 0 0 0 0 0 0 0 0 0 0 0 0 0 0 0 0 0 0 0 0 0 0 0 0 0 0 0 0 0 0 0 0 0 0 0 0 0 0 0 0 0
0 0 0 0 0 0 0 0 0 0 0 0 0 0 0 0 0 0 0 0 0 0 0 0 0 0 0 0 0 0 0 0 0 0 0 0 0 0 0 0 0 0 0
0 0 0 0 0 0 0 0 0 0 0 0 0 0 0 0 0 0 0 0 0 0 0 0 0 0 0 0 0 0 0 0 0 0 0 0 0 0 0 0 0 0 0
0 0 0 0 0 0 0 0 0 0 0 0 0 0 0 0 0 0 0 0 0 0 0 0 0 0 0 0 0 0 0 0 0 0 0 0 0 0 0 0 0 0 0
0 0 0 0 0 0 0 0 0 0 0 0 0 0 0 0 0 0 0 0 0 0 0 0 0 0 0 0 0 0 0 0 0 0 0 0 0 0 0 0 0 0 0
0 0 0 0 0 0 0 0 0 0 0 0 0 0 0 0 0 0 0 0 0 0 0 0 0 0 0 0 0 0 0 0 0 0 0 0 0 0 0 0 0 0 0
0 0 0 0 0 0 0 0 0 0 0 0 0 0 0 0 0 0 0 0 0 0 0 0 0 0 0 0 0 0 0 0 0 0 0 0 0 0 0 0 0 0 0
0 0 0 0 0 0 0 0 0 0 0 0 0 0 0 0 0 0 0 0 0 0 0 0 0 0 0 0 0 0 0 0 0 0 0 0 0 0 0 0 0 0 0
0 0 0 0 0 0 0 0 0 0 0 0 0 0 0 0 0 0 0 0 0 0 0 0 0 0 0 0 0 0 0 0 0 0 0 0 0 0 0 0 0 0 0
0 0 0 0 0 0 0 0 0 0 0 0 0 0 0 0 0 0 0 0 0 0 0 0 0 0 0 0 0 0 0 0 0 0 0 0 0 0 0 0 0 0 0
0 0 0 0 0 0 0 0 0 0 0 0 0 0 0 0 0 0 0 0 0 0 0 0 0 0 0 0 0 0 0 0 0 0 0 0 0 0 0 0 0 0 0
0 0 0 0 0 0 0 0 0 0 0 0 0 0 0 0 0 0 0 0 0 0 0 0 0 0 0 0 0 0 0 0 0 0 0 0 0 0 0 0 0 0 0
0 0 0 0 0 0 0 0 0 0 0 0 0 0 0 0 0 0 0 0 0 0 0 0 0 0 0 0 0 0 0 0 0 0 0 0 0 0 0 0 0 0 0
0 0 0 0 0 0 0 0 0 0 0 0 0 0 0 0 0 0 0 0 0 0 0 0 0 0 0 0 0 0 0 0 0 0 0 0 0 0 0 0 0 0 0
Wind_Speed
17 17 16 15 15 13 12 13 12 11 11 12 12 11 11 10 10 10 9 8 9 7 6 7 7 5 4 4 3 3 3 3 5 4 2 1 1 2 3 3 3 3 4
15 14 15 14 14 14 13 13 12 11 11 11 11 11 11 11 10 11 10 9 10 9 8 8 7 5 5 4 3 4 4 4 4 5 2 1 2 2 3 3 3 3 3
13 14 13 13 14 15 14 12 12 12 11 11 11 11 11 11 11 10 10 9 9 9 8 8 7 7 6 4 4 4 3 2 2 3 3 1 2 1 2 3 3 3 4
11 13 14 14 15 14 13 12 12 12 12 12 11 11 10 10 10 9 9 8 8 7 7 7 7 7 7 6 4 4 3 2 2 2 2 2 2 2 1 2 3 3 4
11 12 13 12 11 11 11 11 11 11 11 11 10 9 9 8 9 10 9 8 8 7 5 5 5 6 7 6 4 4 4 3 2 2 2 2 2 1 2 2 3 4 4
11 11 10 10 10 11 11 11 11 10 10 10 10 10 9 8 11 14 11 8 7 7 6 5 4 5 6 6 6 5 5 4 3 2 2 3 3 2 2 2 2 3 4
9 9 10 10 11 11 10 11 11 11 10 10 10 10 9 10 13 14 14 8 7 7 6 5 4 4 5 4 4 4 3 3 3 3 3 3 3 3 2 2 2 3 4
8 8 9 10 10 10 10 11 10 9 9 9 9 9 8 9 13 14 14 8 6 6 6 6 6 5 5 5 4 3 1 1 1 1 2 3 2 2 2 2 2 3 4
7 8 9 10 10 10 10 10 8 8 8 8 8 8 8 8 13 15 13 7 5 5 5 5 6 5 7 8 5 4 2 0 1 1 1 2 3 2 2 1 1 2 3
7 7 8 9 10 11 10 9 7 7 7 7 7 7 8 8 12 15 14 6 6 5 4 4 6 6 8 9 6 5 3 2 1 1 2 3 3 3 4 1 0 1 2
5 6 6 7 8 9 8 7 8 7 7 7 7 5 6 8 12 15 14 7 7 6 5 4 4 8 8 8 6 4 4 3 2 2 1 1 1 2 2 2 1 1 2
5 6 6 6 6 7 8 8 8 8 8 7 7 5 4 6 8 12 14 11 9 7 5 4 5 9 8 8 5 4 5 4 2 2 1 1 1 1 2 2 2 2 2
6 6 6 6 6 7 9 9 8 7 7 7 6 6 5 4 6 11 13 13 12 6 5 8 9 10 8 5 5 6 5 3 2 1 0 1 1 1 1 2 2 2 3
6 6 6 6 6 6 6 7 7 7 7 7 7 7 6 5 5 6 6 7 9 7 6 8 10 10 6 5 4 3 2 2 2 1 1 0 1 1 1 1 2 2 3
5 5 5 5 6 6 5 5 6 5 8 9 8 8 9 8 8 11 9 7 7 7 7 4 3 3 3 2 2 2 2 2 1 1 1 0 0 1 1 2 1 1 2
6 6 5 5 5 5 5 4 4 5 8 9 10 9 6 9 15 15 14 13 14 15 8 5 4 4 4 3 3 2 1 1 1 1 1 1 0 1 1 2 2 1 2
7 6 5 5 5 6 6 6 5 5 7 9 12 12 11 15 16 16 16 16 15 14 5 5 5 4 4 3 3 3 2 2 2 2 1 1 0 0 1 1 2 2 2
6 6 6 5 6 6 6 6 6 7 6 4 6 12 14 16 17 17 17 13 8 6 4 5 5 4 4 4 4 3 2 2 2 2 1 1 0 0 1 1 2 2 3
5 5 5 5 5 5 6 6 6 6 6 6 5 7 12 14 15 16 14 6 7 6 4 4 4 4 4 3 3 3 3 3 2 2 1 1 1 0 1 1 2 4 3
4 7 7 6 6 6 6 6 6 7 7 7 7 7 8 8 7 8 5 5 5 5 5 5 4 4 4 4 4 3 3 3 3 2 2 1 1 1 1 1 1 2 2
4 6 9 7 6 6 6 7 7 7 7 7 6 8 12 8 7 7 6 5 5 5 5 5 4 4 4 4 4 4 4 3 3 3 2 2 1 1 1 1 1 1 2
5 5 6 6 6 6 6 6 6 7 8 8 6 8 13 7 6 6 5 5 4 4 4 5 5 4 5 5 5 4 4 4 3 3 2 2 1 1 1 0 1 1 2
5 6 6 5 6 8 7 6 6 7 7 7 8 7 7 6 6 6 6 5 5 4 4 4 5 4 4 4 4 5 5 4 4 4 3 2 2 1 1 1 1 1 2
6 7 7 6 6 7 7 7 7 7 8 8 7 7 7 6 6 6 6 5 5 5 4 4 5 6 6 4 3 3 3 3 4 4 5 4 3 2 1 1 1 1 1
6 6 6 7 7 7 7 7 7 8 8 7 7 7 7 6 6 6 6 6 6 5 5 5 4 5 7 6 5 4 5 6 5 4 4 3 3 2 2 1 0 0 1
6 6 6 6 6 6 7 7 7 8 8 7 7 7 7 7 7 6 6 6 6 5 5 4 5 6 6 5 6 7 7 7 7 6 4 3 3 2 2 1 1 0 0
Wind_Direction
192 191 190 191 191 188 190 194 193 188 186 186 189 191 193 194 193 194 198 192 198 201 196 201 211 201 200 204 201 204 210 201 239 264 251 271 267 281 294 288 286 289 300
190 189 190 188 186 188 193 192 188 188 188 188 187 190 193 194 193 197 199 196 198 202 202 201 210 198 204 203 201 210 215 210 221 262 275 272 263 275 289 296 309 311 297
185 185 186 186 187 191 191 187 186 186 185 185 187 192 194 193 193 196 196 196 199 202 200 203 205 193 205 203 202 211 215 212 211 238 269 278 282 306 306 304 307 303 304
180 184 187 189 190 190 187 184 183 183 184 186 188 190 191 191 191 190 191 193 197 199 199 200 198 196 203 199 200 207 200 199 206 233 265 278 281 301 302 296 305 305 302
178 184 190 188 184 181 180 180 180 181 183 182 182 184 185 186 188 185 186 187 191 192 190 192 193 192 193 189 188 191 183 193 200 230 257 278 280 299 287 273 289 301 294
180 185 181 176 176 178 179 177 176 179 178 177 181 183 184 187 183 180 179 181 182 183 183 178 179 184 184 183 182 178 176 186 199 210 234 257 268 267 265 283 294 318 302
178 176 173 172 175 177 173 173 176 177 175 176 180 180 183 184 176 175 174 171 175 180 177 173 172 176 170 169 166 153 169 185 192 195 221 243 253 249 252 270 271 277 275
171 171 170 169 170 168 169 174 176 173 174 176 176 177 175 175 169 167 164 166 167 172 175 175 172 170 169 158 151 152 170 210 209 190 211 237 243 236 215 238 260 283 282
169 171 171 168 166 166 170 174 171 166 169 171 170 169 170 169 165 162 158 164 161 163 165 164 164 169 167 155 150 157 163 245 49 75 47 26 18 16 46 55 360 339 309
176 170 167 165 166 170 171 167 161 161 164 160 161 168 168 167 164 160 157 158 159 157 152 159 164 163 162 158 160 164 179 202 149 66 42 29 23 12 18 30 237 306 308
159 151 158 162 164 164 159 156 151 149 148 151 152 155 162 163 162 162 160 161 163 159 160 163 163 156 153 156 157 169 180 164 146 126 92 42 20 6 348 338 305 244 265
142 146 152 155 153 151 151 150 148 149 150 151 148 147 152 158 161 165 165 163 157 158 163 161 156 151 149 150 152 150 139 125 122 118 96 34 342 322 322 321 314 305 269
143 147 147 146 148 153 155 154 152 155 156 158 160 163 159 153 156 155 160 159 153 148 150 151 147 144 142 145 141 136 131 131 133 136 171 263 275 287 320 333 334 332 321
152 151 149 150 151 151 154 157 161 164 163 164 166 166 159 154 155 153 155 152 145 137 134 137 134 130 123 124 126 127 130 148 149 165 188 306 347 354 343 335 326 334 334
154 154 153 154 155 152 152 162 165 175 175 170 172 166 165 171 174 162 157 157 155 147 132 118 118 128 132 129 123 121 123 121 118 124 126 103 358 348 331 336 338 340 323
160 161 159 155 153 150 142 116 103 142 155 159 158 156 158 156 154 157 154 150 147 145 134 142 149 154 161 162 159 151 143 147 149 140 140 155 240 309 326 337 344 333 312
171 168 162 159 158 157 155 151 139 108 121 142 150 152 151 152 154 155 152 149 149 146 140 154 161 167 168 168 168 167 173 172 161 156 163 183 250 308 326 326 326 322 313
169 166 166 166 163 163 162 159 157 153 145 133 143 149 150 152 153 153 150 142 148 151 153 161 166 168 168 170 171 170 167 159 159 167 172 178 195 275 305 306 304 309 308
171 166 161 160 159 159 155 151 152 151 147 142 133 141 147 148 148 151 150 151 160 163 161 162 163 164 167 167 167 167 168 171 170 169 173 178 193 218 278 287 293 317 327
170 163 161 159 157 156 155 155 155 155 153 155 156 152 147 145 152 159 160 156 157 160 161 162 161 160 161 163 164 165 165 166 166 168 173 180 197 211 241 265 286 299 298
162 161 158 158 162 162 161 162 162 161 162 161 160 162 160 159 162 163 163 161 161 161 161 159 158 160 160 159 162 165 167 171 172 171 171 178 187 217 252 266 281 293 305
163 165 166 164 160 161 161 160 160 160 159 157 153 158 160 152 155 157 159 158 154 153 156 155 158 164 167 166 166 166 169 171 172 171 170 174 185 204 229 275 309 311 315
158 159 159 159 158 159 158 159 161 161 159 159 156 155 157 157 157 156 154 150 147 148 149 150 153 158 160 161 164 167 172 179 179 173 170 174 177 186 195 226 272 304 308
158 160 162 162 160 162 163 163 161 159 158 158 157 156 156 154 151 149 147 145 144 146 148 150 155 159 156 154 156 160 168 170 165 168 167 166 170 176 184 204 253 280 296
158 159 161 163 163 162 161 160 159 158 157 157 156 153 150 147 146 144 144 143 144 147 149 149 151 154 157 157 157 163 168 164 161 155 153 155 162 169 173 180 211 270 318
151 151 152 155 158 159 158 158 158 156 155 153 152 152 150 148 146 145 145 146 147 148 148 149 149 149 153 157 162 166 164 161 161 158 149 150 154 161 160 166 187 191 315